This is the latest recevied weather packets stored in our database for station/object DH5RAE-11. If no packets are shown the sender has not sent any weather packets the latest 10 day(s).
| Time | Temp. | Humidity | Pressure | Rain* | Wind** | Luminosity | Snow |
|---|---|---|---|---|---|---|---|
| 1787425833 | 10.56° C | 85% | 1024 hPa | 0 mm | - | - | - |
| 1787425024 | 11.11° C | 85% | 1023.7 hPa | 0 mm | - | - | - |
| 1787424423 | 11.67° C | 84% | 1023.5 hPa | 0 mm | - | - | - |
| 1787423823 | 11.67° C | 84% | 1023.5 hPa | 0 mm | - | - | - |
| 1787423015 | 12.22° C | 84% | 1023.2 hPa | 0 mm | - | - | - |
| 1787422415 | 12.78° C | 84% | 1023.2 hPa | 0 mm | - | - | - |
| 1787421814 | 12.78° C | 83% | 1023 hPa | 0 mm | - | - | - |
| 1787421214 | 13.33° C | 82% | 1023 hPa | 0 mm | - | - | - |
| 1787420267 | 13.89° C | 82% | 1023 hPa | 0 mm | - | - | - |
| 1787419529 | 13.89° C | 81% | 1023 hPa | 0 mm | - | - | - |
| 1787418929 | 14.44° C | 81% | 1022.8 hPa | 0 mm | - | - | - |
| 1787418121 | 14.44° C | 80% | 1022.8 hPa | 0 mm | - | - | - |
| 1787417520 | 15° C | 80% | 1022.8 hPa | 0 mm | - | - | - |
| 1787416919 | 15° C | 79% | 1022.6 hPa | 0 mm | - | - | - |
| 1787416249 | 15° C | 78% | 1022.5 hPa | 0 mm | - | - | - |
| 1787415509 | 15.56° C | 79% | 1022.4 hPa | 0 mm | - | - | - |
| 1787414909 | 15.56° C | 78% | 1022.3 hPa | 0 mm | - | - | - |
| 1787414172 | 15.56° C | 79% | 1022.2 hPa | 0 mm | - | - | - |
| 1787413572 | 16.11° C | 80% | 1022.3 hPa | 0 mm | - | - | - |
| 1787412972 | 16.11° C | 79% | 1022.2 hPa | 0 mm | - | - | - |
| 1787412371 | 16.11° C | 80% | 1022 hPa | 0 mm | - | - | - |
| 1787411771 | 16.67° C | 80% | 1022 hPa | 0 mm | - | - | - |
| 1787411171 | 16.67° C | 79% | 1021.9 hPa | 0 mm | - | - | - |
| 1787410363 | 16.67° C | 80% | 1021.9 hPa | 0 mm | - | - | - |
| 1787409692 | 16.67° C | 80% | 1022 hPa | 0 mm | - | - | - |
* Rain latest hour (hover to see other rain measurements)
** Current wind speed in m/s (hover to see current wind gust speed)